Regional Weather Roundup
Issued by NWS Charleston, SC

Current Version | Previous Version | Graphics & Text | Print | Product List | Glossary On
Versions: 1 2 3 4 5 6 7 8 9 10 11 12 13 14 15 16 17 18 19 20 21 22 23 24 25 26 27 28 29 30 31 32 33 34 35 36 37 38 39 40 41 42 43 44 45 46 47 48 49 50
700
ASUS42 KCHS 161327
RWRCHS

REGIONAL WEATHER ROUNDUP
NATIONAL WEATHER SERVICE CHARLESTON SC
900 AM EDT WED AUG 16 2017

NOTE: "FAIR" INDICATES FEW OR NO CLOUDS BELOW 12,000 FEET WITH NO
SIGNIFICANT WEATHER AND/OR OBSTRUCTIONS TO VISIBILITY.

NOT ALL STATIONS ARE QUALITY CONTROLLED. USE DATA WITH CAUTION...
ESPECIALLY DEWPOINT OBSERVATIONS.

SCZ027-030-031-034>040-042>050-161400-
...SOUTHEAST SOUTH CAROLINA...

CITY           SKY/WX    TMP DP  RH WIND       PRES   REMARKS
N CHARLESTON   MOSUNNY   83  76  79 NW8       30.02R HX  91
WATERFRONT PRK   N/A    N/A N/A N/A W6        29.99R
JOHNS ISLAND   FAIR      86  77  74 W8        30.02S HX  97
PINOPOLIS        N/A     81  77  89 W6        29.95R
MONCKS CORNER  FAIR      81  75  83 NW3       30.02R
SUMMERVILLE    FAIR      82  75  78 W5        30.03S
BEAUFORT MCAS  MOSUNNY   85  78  80 NW8       30.03R HX  96
BEAUFORT ARPT  FAIR      82  75  78 NW9       30.03S
HILTON HEAD IS SUNNY     84  77  79 SW5       30.04R HX  94
WALTERBORO     SUNNY     82  73  74 NW7       30.04R
ALLENDALE      NOT AVBL

...SOUTHERN MIDLANDS AND PEE DEE...

CITY           SKY/WX    TMP DP  RH WIND       PRES   REMARKS
GEORGETOWN     FAIR      82  81  94 NW5       30.02R HX  95
KINGSTREE      FAIR      81  77  89 CALM      30.02R
ORANGEBURG     SUNNY     82  74  76 NW8       30.03R
BARNWELL       FAIR      86  77  74 NW5       30.04R HX  97
AIKEN          FAIR      81  73  78 W6        30.08S
MANNING        FAIR      82  77  83 MISG      30.02S HX  91
COLUMBIA       MOSUNNY   84  76  76 W6        30.02R HX  93
SUMTER         SUNNY     82  74  77 CALM      30.00S
FLORENCE       SUNNY     83  76  79 N5        30.02R HX  91
MYRTLE BEACH   SUNNY     82  75  78 VRB5      30.01R
N MYRTLE BEACH SUNNY     83  76  79 NW6       29.99R HX  91

$$

GAZ063-065-086>088-099>101-113>116-118-119-134>141-150-161400-
...SOUTHEAST GEORGIA...

CITY           SKY/WX    TMP DP  RH WIND       PRES   REMARKS
SAVANNAH ARPT  MOSUNNY   83  76  79 W6        30.05R HX  91
HUNTER AAF     SUNNY     82  76  81 NW6       30.02R HX  90
FORT STEWART   SUNNY     82  74  77 W6        30.03R
STATESBORO     SUNNY     83  73  71 W3        30.05S
SYLVANIA       SUNNY     83  78  87 NW5       30.06R HX  92
CLAXTON        FAIR      83  77  81 W5        30.06R HX  92

...CSRA...CENTRAL AND FAR SOUTHEAST GEORGIA...

CITY           SKY/WX    TMP DP  RH WIND       PRES   REMARKS
THOMSON        SUNNY     82  74  75 N8        30.11R
AUGUSTA-BUSH   SUNNY     85  76  74 CALM      30.03R HX  94
AUGUSTA-DANIEL SUNNY     84  72  67 NW7       30.05R
SWAINSBORO     FAIR      81  77  89 W3        30.07S
VIDALIA        SUNNY     82  75  78 W5        30.07S
EASTMAN        FAIR      81  67  62 NW6       30.11R
HAZLEHURST     FAIR      82  67  60 CALM      30.07R
ALMA           SUNNY     81  73  76 NW8       30.07R
WAYCROSS       SUNNY     83  74  74 NW6       30.08R
JESUP          FAIR      84  73  70 NW8       30.07R HX  91
BAXLEY         FAIR      79  77  94 NW7       30.07S
BRUNSWICK      SUNNY     82  73  74 W3        30.07S
SAINT SIMONS   SUNNY     83  76  79 W8        30.05S HX  91

$$

SCZ027-028-034-036>038-045-046-048>050-GAZ119-141-161400-
...LAKE AND SUPPLEMENTAL COASTAL OBSERVATIONS...

STATION/POSITION TIME  TEMP    WIND        PRES    WAVE   SWELL
                       AIR SEA DIR/SP/G            HT/PER HT/PER/DIR
                 (UTC) (F)     (DEG/KT/KT) (MB)    (FT/S) (FT/S/D)
WINYAH BAY       1245   82     310/  6     1016.0R
LAKE MURRAY      1220   79     290/  2/  4 1015.9
ACE BASIN NERRS  1245   83     280/  2     1017.0R
FORT PULASKI     1300   82 85  300/  8/  9 1017.5
SAPELO ISLAND    1300   82     290/  5     1018.0

$$

ANZ835-935-AMZ111-154-330-350-352-354-370-450-454-472-161400-
...C-MAN AND BUOY OBSERVATIONS...

STATION/POSITION TIME  TEMP    WIND        PRES    WAVE   SWELL
                       AIR SEA DIR/SP/G            HT/PER HT/PER/DIR
                 (UTC) (F)     (DEG/KT/KT) (MB)    (FT/S) (FT/S/D)
BUOY 41004       1310   83 83  280/ 10/ 12 1016.0
BUOY 41008       1250   81 84  270/ 10/ 12 1017.2R   2/ 3   2/100/ 8
FOLLY BEACH CMAN 1300   83     300/  6/  7 1017.0R
CAPERS NEARSHORE 1308   82 85  300/ 10/ 12 1016.2R
FRIPP NEARSHORE  1308   83     290/  8/ 10 1016.7R


STATION/POSITION TIME  TEMP    WIND        PRES    WAVE   SWELL
                       AIR SEA DIR/SP/G            HT/PER HT/PER/DIR
                 (UTC) (F)     (DEG/KT/KT) (MB)    (FT/S) (FT/S/D)
5E ST. MARYS GA  1230      83                N/A     1/ 8
FRYING PAN BUOY  1310   82 83  310/ 12/ 12 1015.2
BUOY 41025       1250   80 83   20/ 12/ 14 1014.4R   3/ 9   3/120/ 9
CAPE LOOKOUT NC  1300   79     360/ 10/ 12 1014.7R
BUOY 41002       1250   84 83  240/ 14/ 16 1016.4R   5/ 6   2/ 80/ 8
BUOY 41010       1310   85 86  270/ 10/ 12 1018.4
ST AUGUSTINE FL  1300   82 80  300/  6/  8 1019.0R


$$




USA.gov is the U.S. government's official web portal to all federal, state and local government web resources and services.